| time (UTC) | temp F | wind direction | speed knots | gust knots | rain 1hr in | rain 24hr in | rain mn in | humidity % | barometer mb |
| 20260508100543 | 60 | 315 | 0.9 | 3.5 | 0.00 | 0.00 | 0.00 | 57 | 1017.3 |
| 20260508095539 | 60 | 315 | 1.7 | 3.5 | 0.00 | 0.00 | 0.00 | 57 | 1017.3 |
| 20260508094534 | 60 | 314 | 0.9 | 3.5 | 0.00 | 0.00 | 0.00 | 60 | 1017.3 |
| 20260508093530 | 59 | 15 | 0.9 | 2.6 | 0.00 | 0.00 | 0.00 | 60 | 1017.1 |
| 20260508092527 | 59 | 13 | 1.7 | 2.6 | 0.00 | 0.00 | 0.00 | 60 | 1017.2 |
| 20260508091525 | 59 | 25 | 0.9 | 2.6 | 0.00 | 0.00 | 0.00 | 61 | 1017.1 |
| 20260508090520 | 59 | 270 | 1.7 | 1.7 | 0.00 | 0.00 | 0.00 | 62 | 1017.1 |
| 20260508085518 | 58 | 354 | 1.7 | 2.6 | 0.00 | 0.00 | 0.00 | 63 | 1017.1 |
| 20260508084616 | 58 | 338 | 1.7 | 2.6 | 0.00 | 0.00 | 0.00 | 63 | 1017.0 |
| 20260508083630 | 58 | 0 | 1.7 | 3.5 | 0.00 | 0.00 | 0.00 | 67 | 1017.0 |
| 20260508082608 | 57 | 90 | 0.0 | 1.7 | 0.00 | 0.00 | 0.00 | 69 | 1017.0 |
| 20260508081604 | 56 | 0 | 0.9 | 1.7 | 0.00 | 0.00 | 0.00 | 69 | 1017.0 |
| 20260508080600 | 56 | 337 | 1.7 | 3.5 | 0.00 | 0.00 | 0.00 | 71 | 1017.0 |
| 20260508075556 | 56 | 315 | 0.0 | 1.7 | 0.00 | 0.00 | 0.00 | 71 | 1017.0 |
| 20260508074551 | 56 | 315 | 0.9 | 1.7 | 0.00 | 0.00 | 0.00 | 72 | 1016.9 |
| 20260508073549 | 55 | 0.0 | 0.0 | 0.00 | 0.00 | 0.00 | 73 | 1016.9 | |
| 20260508072545 | 55 | 45 | 0.0 | 1.7 | 0.00 | 0.00 | 0.00 | 74 | 1016.7 |
| 20260508071542 | 54 | 53 | 0.9 | 1.7 | 0.00 | 0.00 | 0.00 | 78 | 1016.7 |
| 20260508070538 | 53 | 0.0 | 0.0 | 0.00 | 0.00 | 0.00 | 80 | 1016.6 | |
| 20260508065535 | 53 | 0.0 | 0.0 | 0.00 | 0.00 | 0.00 | 80 | 1016.5 | |
| 20260508064532 | 52 | 0.0 | 0.0 | 0.00 | 0.00 | 0.00 | 81 | 1016.2 | |
| 20260508063527 | 52 | 0.0 | 0.0 | 0.00 | 0.00 | 0.00 | 81 | 1016.2 | |
| 20260508062524 | 51 | 0.0 | 0.0 | 0.00 | 0.00 | 0.00 | 82 | 1016.2 | |
| 20260508061521 | 51 | 0.0 | 0.0 | 0.00 | 0.00 | 0.00 | 84 | 1016.1 | |
| 20260508060517 | 50 | 0.0 | 0.0 | 0.00 | 0.00 | 0.00 | 84 | 1016.0 | |
| 20260508055635 | 50 | 0.0 | 0.0 | 0.00 | 0.00 | 0.00 | 85 | 1015.9 | |
| 20260508054610 | 49 | 0.0 | 0.0 | 0.00 | 0.00 | 0.00 | 85 | 1016.1 | |
| 20260508053607 | 49 | 0.0 | 0.0 | 0.00 | 0.00 | 0.00 | 85 | 1015.8 | |
| 20260508052607 | 48 | 0.0 | 0.0 | 0.00 | 0.00 | 0.00 | 85 | 1016.0 | |
| 20260508051559 | 48 | 0.0 | 0.0 | 0.00 | 0.00 | 0.00 | 85 | 1015.9 | |
| 20260508050616 | 47 | 0.0 | 0.0 | 0.00 | 0.00 | 0.00 | 85 | 1015.9 | |
| 20260508045554 | 47 | 0.0 | 0.0 | 0.00 | 0.00 | 0.00 | 85 | 1015.7 | |
| 20260508044549 | 46 | 0.0 | 0.0 | 0.00 | 0.00 | 0.00 | 84 | 1015.8 | |
| 20260508043551 | 46 | 0.0 | 0.0 | 0.00 | 0.00 | 0.00 | 84 | 1015.7 | |
| 20260508042542 | 46 | 0.0 | 0.0 | 0.00 | 0.00 | 0.00 | 84 | 1015.7 | |
| 20260508041539 | 46 | 0.0 | 0.0 | 0.00 | 0.00 | 0.00 | 84 | 1015.7 | |
| 20260508040535 | 46 | 0.0 | 0.0 | 0.00 | 0.00 | 0.00 | 84 | 1015.7 | |
| 20260508035533 | 46 | 0.0 | 0.0 | 0.00 | 0.00 | 0.00 | 83 | 1015.6 | |
| 20260508034528 | 46 | 0.0 | 0.0 | 0.00 | 0.00 | 0.00 | 83 | 1015.6 | |
| 20260508033524 | 46 | 0.0 | 0.0 | 0.00 | 0.00 | 0.00 | 83 | 1015.5 | |
| 20260508032521 | 46 | 0.0 | 0.0 | 0.00 | 0.00 | 0.00 | 83 | 1015.5 | |
| 20260508031517 | 46 | 0.0 | 0.0 | 0.00 | 0.00 | 0.00 | 82 | 1015.5 | |
| 20260508030614 | 46 | 0.0 | 0.0 | 0.00 | 0.00 | 0.00 | 82 | 1015.5 | |
| 20260508025610 | 46 | 0.0 | 0.0 | 0.00 | 0.00 | 0.00 | 81 | 1015.5 | |
| 20260508024609 | 46 | 0.0 | 0.0 | 0.00 | 0.00 | 0.00 | 81 | 1015.5 | |
| 20260508023604 | 46 | 0.0 | 0.0 | 0.00 | 0.00 | 0.00 | 80 | 1015.5 | |
| 20260508022600 | 46 | 0.0 | 0.0 | 0.00 | 0.00 | 0.00 | 80 | 1015.5 | |
| 20260508021557 | 47 | 0.0 | 0.0 | 0.00 | 0.00 | 0.00 | 80 | 1015.6 | |
| 20260508020638 | 47 | 0.0 | 0.0 | 0.00 | 0.00 | 0.00 | 79 | 1015.5 | |
| 20260508015550 | 47 | 0.0 | 0.0 | 0.00 | 0.00 | 0.00 | 77 | 1015.4 | |
| 20260508014545 | 47 | 0.0 | 0.0 | 0.00 | 0.00 | 0.00 | 77 | 1015.5 | |
| 20260508013541 | 48 | 0.0 | 0.0 | 0.00 | 0.00 | 0.00 | 76 | 1015.4 | |
| 20260508012538 | 48 | 0.0 | 0.0 | 0.00 | 0.00 | 0.00 | 74 | 1015.4 | |
| 20260508011534 | 48 | 0.0 | 0.0 | 0.00 | 0.00 | 0.00 | 73 | 1015.5 | |
| 20260508010531 | 49 | 0.0 | 0.0 | 0.00 | 0.00 | 0.00 | 73 | 1015.6 | |
| 20260508005529 | 50 | 0.0 | 0.0 | 0.00 | 0.00 | 0.00 | 73 | 1015.6 | |
| 20260508004524 | 50 | 0.0 | 0.9 | 0.00 | 0.00 | 0.00 | 72 | 1015.7 | |
| 20260508003520 | 50 | 0.0 | 0.0 | 0.00 | 0.00 | 0.00 | 71 | 1015.6 | |
| 20260508002520 | 51 | 0.0 | 0.0 | 0.00 | 0.00 | 0.00 | 71 | 1015.6 | |
| 20260508001612 | 52 | 0.0 | 0.0 | 0.00 | 0.00 | 0.00 | 71 | 1015.6 | |
| 20260508000609 | 52 | 0.0 | 0.0 | 0.00 | 0.00 | 0.00 | 71 | 1015.6 | |
| 20260507235605 | 53 | 0.0 | 0.0 | 0.00 | 0.00 | 0.00 | 71 | 1015.6 | |
| 20260507234602 | 53 | 0.0 | 0.0 | 0.00 | 0.00 | 0.00 | 72 | 1015.5 | |
| 20260507233600 | 53 | 0.0 | 0.9 | 0.00 | 0.00 | 0.00 | 72 | 1015.5 | |
| 20260507232555 | 53 | 0.0 | 0.0 | 0.00 | 0.00 | 0.00 | 72 | 1015.6 | |
| 20260507231552 | 53 | 0.0 | 0.9 | 0.00 | 0.00 | 0.00 | 72 | 1015.5 | |
| 20260507230630 | 53 | 0.0 | 0.9 | 0.00 | 0.00 | 0.00 | 72 | 1015.5 | |
| 20260507225545 | 53 | 45 | 0.0 | 1.7 | 0.00 | 0.00 | 0.00 | 72 | 1015.6 |
| 20260507224543 | 53 | 0 | 0.0 | 1.7 | 0.00 | 0.00 | 0.00 | 72 | 1015.5 |
| 20260507223540 | 54 | 0.0 | 0.0 | 0.00 | 0.00 | 0.00 | 71 | 1015.4 | |
| 20260507222556 | 54 | 0.0 | 0.9 | 0.00 | 0.00 | 0.00 | 71 | 1015.3 | |
| 20260507221532 | 54 | 0.0 | 0.9 | 0.00 | 0.00 | 0.00 | 71 | 1015.4 | |
| 20260507220546 | 54 | 20 | 0.9 | 1.7 | 0.00 | 0.00 | 0.00 | 71 | 1015.4 |
| 20260507215523 | 54 | 0.0 | 0.9 | 0.00 | 0.00 | 0.00 | 71 | 1015.4 | |
| 20260507214520 | 54 | 0.0 | 0.9 | 0.00 | 0.00 | 0.00 | 71 | 1015.4 | |
| 20260507213517 | 54 | 0.0 | 0.9 | 0.00 | 0.00 | 0.00 | 71 | 1015.4 | |
| 20260507212612 | 54 | 0.0 | 0.9 | 0.00 | 0.00 | 0.00 | 71 | 1015.3 | |
| 20260507211608 | 54 | 0 | 0.0 | 1.7 | 0.00 | 0.00 | 0.00 | 71 | 1015.4 |
| 20260507210607 | 54 | 0.0 | 0.0 | 0.00 | 0.00 | 0.00 | 71 | 1015.3 | |
| 20260507205602 | 54 | 0.0 | 0.9 | 0.00 | 0.00 | 0.00 | 68 | 1015.2 | |
| 20260507204600 | 55 | 0.0 | 0.9 | 0.00 | 0.00 | 0.00 | 65 | 1015.1 | |
| 20260507203555 | 55 | 75 | 0.0 | 1.7 | 0.00 | 0.00 | 0.00 | 65 | 1015.1 |
| 20260507202553 | 55 | 23 | 0.0 | 1.7 | 0.00 | 0.00 | 0.00 | 64 | 1015.1 |
| 20260507201611 | 56 | 346 | 2.6 | 4.3 | 0.00 | 0.00 | 0.00 | 61 | 1015.0 |
| 20260507200544 | 56 | 340 | 1.7 | 2.6 | 0.00 | 0.00 | 0.00 | 60 | 1015.0 |
| 20260507195541 | 57 | 284 | 2.6 | 7.0 | 0.00 | 0.00 | 0.00 | 60 | 1015.0 |
| 20260507194540 | 57 | 303 | 3.5 | 6.1 | 0.00 | 0.00 | 0.00 | 58 | 1014.9 |
| 20260507193535 | 57 | 340 | 2.6 | 3.5 | 0.00 | 0.00 | 0.00 | 54 | 1014.7 |
| 20260507192530 | 57 | 327 | 1.7 | 5.2 | 0.00 | 0.00 | 0.00 | 53 | 1014.7 |
| 20260507191527 | 58 | 282 | 3.5 | 7.0 | 0.00 | 0.00 | 0.00 | 53 | 1014.6 |
| 20260507190525 | 58 | 0 | 1.7 | 1.7 | 0.00 | 0.00 | 0.00 | 52 | 1014.5 |
| 20260507185520 | 58 | 25 | 0.9 | 3.5 | 0.00 | 0.00 | 0.00 | 52 | 1014.4 |
| 20260507184518 | 58 | 6 | 0.9 | 2.6 | 0.00 | 0.00 | 0.00 | 51 | 1014.3 |
| 20260507183613 | 58 | 90 | 0.0 | 1.7 | 0.00 | 0.00 | 0.00 | 51 | 1014.3 |
| 20260507182610 | 58 | 203 | 0.9 | 3.5 | 0.00 | 0.00 | 0.00 | 50 | 1014.3 |
| 20260507181608 | 58 | 13 | 0.9 | 3.5 | 0.00 | 0.00 | 0.00 | 50 | 1014.1 |
| 20260507180643 | 59 | 53 | 0.9 | 1.7 | 0.00 | 0.00 | 0.00 | 50 | 1014.1 |
| 20260507175559 | 59 | 344 | 1.7 | 3.5 | 0.00 | 0.00 | 0.00 | 49 | 1014.1 |
| 20260507174557 | 59 | 295 | 1.7 | 3.5 | 0.00 | 0.00 | 0.00 | 48 | 1014.1 |
| 20260507173552 | 59 | 314 | 0.9 | 3.5 | 0.00 | 0.00 | 0.00 | 47 | 1014.0 |
| 20260507172548 | 59 | 308 | 2.6 | 5.2 | 0.00 | 0.00 | 0.00 | 46 | 1014.1 |
| 20260507171546 | 60 | 341 | 1.7 | 4.3 | 0.00 | 0.00 | 0.00 | 45 | 1014.1 |
| 20260507170542 | 60 | 293 | 1.7 | 2.6 | 0.00 | 0.00 | 0.00 | 44 | 1014.2 |
| 20260507165538 | 60 | 291 | 2.6 | 5.2 | 0.00 | 0.00 | 0.00 | 44 | 1014.2 |
| 20260507164555 | 61 | 335 | 2.6 | 7.0 | 0.00 | 0.00 | 0.00 | 45 | 1014.2 |
| 20260507163552 | 61 | 353 | 2.6 | 3.5 | 0.00 | 0.00 | 0.00 | 44 | 1014.2 |
| 20260507162526 | 61 | 343 | 2.6 | 5.2 | 0.00 | 0.00 | 0.00 | 45 | 1014.2 |
| 20260507161524 | 60 | 342 | 3.5 | 7.0 | 0.00 | 0.00 | 0.00 | 45 | 1014.1 |
| 20260507160519 | 60 | 323 | 2.6 | 4.3 | 0.00 | 0.00 | 0.00 | 45 | 1014.2 |
| 20260507155519 | 61 | 340 | 1.7 | 4.3 | 0.00 | 0.00 | 0.00 | 46 | 1014.2 |
| 20260507154612 | 61 | 290 | 2.6 | 7.0 | 0.00 | 0.00 | 0.00 | 45 | 1014.2 |
| 20260507153609 | 61 | 322 | 2.6 | 6.1 | 0.00 | 0.00 | 0.00 | 47 | 1014.4 |
| 20260507152625 | 61 | 329 | 3.5 | 6.1 | 0.00 | 0.00 | 0.00 | 46 | 1014.4 |
| 20260507150558 | 62 | 315 | 3.5 | 4.3 | 0.00 | 0.00 | 0.00 | 49 | 1014.4 |
| 20260507145616 | 61 | 349 | 2.6 | 4.3 | 0.00 | 0.00 | 0.00 | 49 | 1014.5 |
| 20260507144613 | 61 | 293 | 3.5 | 7.0 | 0.00 | 0.00 | 0.00 | 49 | 1014.6 |
| 20260507143549 | 61 | 2 | 2.6 | 4.3 | 0.00 | 0.00 | 0.00 | 49 | 1014.9 |
| 20260507142546 | 60 | 306 | 2.6 | 3.5 | 0.00 | 0.00 | 0.00 | 47 | 1015.0 |
| 20260507141541 | 61 | 313 | 2.6 | 5.2 | 0.00 | 0.00 | 0.00 | 49 | 1015.1 |
| 20260507140537 | 60 | 301 | 3.5 | 5.2 | 0.00 | 0.00 | 0.00 | 48 | 1015.2 |
| 20260507135534 | 61 | 336 | 2.6 | 4.3 | 0.00 | 0.00 | 0.00 | 50 | 1015.2 |
| 20260507134550 | 61 | 322 | 0.9 | 2.6 | 0.00 | 0.00 | 0.00 | 50 | 1015.4 |
| 20260507133550 | 60 | 292 | 2.6 | 3.5 | 0.00 | 0.00 | 0.00 | 50 | 1015.3 |
| 20260507132523 | 61 | 51 | 1.7 | 2.6 | 0.00 | 0.00 | 0.00 | 49 | 1015.5 |
| 20260507131520 | 60 | 282 | 2.6 | 6.1 | 0.00 | 0.00 | 0.00 | 48 | 1015.4 |
| 20260507130537 | 60 | 45 | 2.6 | 3.5 | 0.00 | 0.00 | 0.00 | 46 | 1015.4 |
| 20260507125635 | 60 | 306 | 4.3 | 7.0 | 0.00 | 0.00 | 0.00 | 45 | 1015.4 |
| 20260507124610 | 60 | 273 | 2.6 | 6.1 | 0.00 | 0.00 | 0.00 | 46 | 1015.4 |
| 20260507123608 | 60 | 0 | 0.9 | 2.6 | 0.00 | 0.00 | 0.00 | 51 | 1015.5 |
| 20260507122602 | 59 | 0 | 0.9 | 3.5 | 0.00 | 0.00 | 0.00 | 52 | 1015.6 |
| 20260507121620 | 58 | 338 | 2.6 | 3.5 | 0.00 | 0.00 | 0.00 | 52 | 1015.6 |
| 20260507120738 | 58 | 344 | 2.6 | 4.3 | 0.00 | 0.00 | 0.00 | 50 | 1015.7 |
| 20260507115552 | 57 | 10 | 1.7 | 3.5 | 0.00 | 0.00 | 0.00 | 51 | 1015.6 |
| 20260507114548 | 57 | 277 | 3.5 | 6.1 | 0.00 | 0.00 | 0.00 | 50 | 1015.8 |
| 20260507113546 | 57 | 63 | 0.9 | 2.6 | 0.00 | 0.00 | 0.00 | 52 | 1015.7 |
| 20260507112544 | 56 | 356 | 1.7 | 3.5 | 0.00 | 0.00 | 0.00 | 57 | 1015.7 |
| 20260507111539 | 56 | 359 | 1.7 | 4.3 | 0.00 | 0.00 | 0.00 | 62 | 1015.7 |
| 20260507110534 | 55 | 45 | 1.7 | 2.6 | 0.00 | 0.00 | 0.00 | 63 | 1015.9 |
| 20260507105531 | 55 | 353 | 0.9 | 1.7 | 0.00 | 0.00 | 0.00 | 65 | 1016.0 |
| 20260507104529 | 54 | 360 | 0.9 | 2.6 | 0.00 | 0.00 | 0.00 | 70 | 1016.0 |
| 20260507103525 | 53 | 5 | 0.9 | 1.7 | 0.00 | 0.00 | 0.00 | 70 | 1016.1 |
| 20260507102542 | 53 | 327 | 0.9 | 1.7 | 0.00 | 0.00 | 0.00 | 71 | 1016.1 |
| 20260507101517 | 53 | 0 | 0.0 | 1.7 | 0.00 | 0.00 | 0.00 | 71 | 1015.9 |